Back to catalog

STARLINK-30539

AliveCommunicationsVLEO
NORAD 58004·PAYLOAD·🇺🇸 United States

Launched Oct 5, 2023 from Cape Canaveral Space Force Station

Loading…

Next Passes (next 24 hours)

TLE

FreshSource: CelesTrak SupGP

Epoch: Sep 14, 2026, 22:42 UTC

1 58004C 23153P   26257.94631944  .00060678  00000+0  21977-2 0  2574
2 58004  43.0024  77.9847 0001425 272.3058  88.3438 15.27549502    18

Track STARLINK-30539 in real time with AllMySat

Download on the App Store